DLH2AC EDDH-EDDC

Flight info

Callsign DLH2AC
Flight time 0h 58m
Altitude 27000
Route EDDH AMLU2G AMLUH L619 BUMIL M748 OSKAN OSKA4A EDDC
Aircraft A319/M-SG/L

Departure

Time 2026-04-24 12:10
Airport Hamburg Helmut Schmidt Airport (EDDH)

Arrival

Time 2026-04-24 13:08
Airport Dresden Airport (EDDC)
Time Latitude Longitude Altitude Speed Heading
2026-04-24 11:36 53.63334 10.00357 46 ft 0 kts 86°
2026-04-24 11:37 53.63331 10.00356 46 ft 0 kts 86°
2026-04-24 12:00 53.63331 10.00351 46 ft 2 kts 86°
2026-04-24 12:00 53.63329 10.00321 46 ft 3 kts 86°
2026-04-24 12:00 53.63328 10.00286 44 ft 3 kts 86°
2026-04-24 12:01 53.63327 10.00253 41 ft 3 kts 86°
2026-04-24 12:01 53.63325 10.00219 41 ft 3 kts 86°
2026-04-24 12:01 53.63325 10.00187 41 ft 3 kts 111°
2026-04-24 12:01 53.63334 10.00166 44 ft 3 kts 167°
2026-04-24 12:02 53.63345 10.00163 44 ft 2 kts 176°
2026-04-24 12:02 53.63355 10.00162 45 ft 0 kts 176°
2026-04-24 12:06 53.63353 10.00162 45 ft 1 kts 176°
2026-04-24 12:06 53.63337 10.00164 44 ft 5 kts 176°
2026-04-24 12:06 53.63291 10.00170 46 ft 7 kts 176°
2026-04-24 12:06 53.63239 10.00177 42 ft 8 kts 175°
2026-04-24 12:07 53.63182 10.00184 45 ft 8 kts 176°
2026-04-24 12:07 53.63121 10.00191 45 ft 9 kts 176°
2026-04-24 12:07 53.63059 10.00172 45 ft 9 kts 211°
2026-04-24 12:07 53.63003 10.00110 44 ft 10 kts 213°
2026-04-24 12:08 53.62943 10.00040 45 ft 11 kts 221°
2026-04-24 12:08 53.62906 9.99934 44 ft 11 kts 245°
2026-04-24 12:08 53.62872 9.99830 46 ft 10 kts 245°
2026-04-24 12:08 53.62886 9.99731 47 ft 10 kts 321°
2026-04-24 12:09 53.62956 9.99669 46 ft 17 kts 333°
2026-04-24 12:09 53.63251 9.99412 46 ft 85 kts 332°
2026-04-24 12:09 53.63973 9.98783 47 ft 146 kts 329°
2026-04-24 12:09 53.64890 9.97961 616 ft 151 kts 330°
2026-04-24 12:10 53.65841 9.97159 1355 ft 152 kts 329°
2026-04-24 12:10 53.66826 9.96334 1913 ft 168 kts 328°
2026-04-24 12:10 53.67929 9.95388 2347 ft 188 kts 329°
2026-04-24 12:11 53.70665 9.94772 3850 ft 203 kts
2026-04-24 12:11 53.72099 9.94906 4612 ft 212 kts
2026-04-24 12:11 53.73343 9.96275 5306 ft 226 kts 51°
2026-04-24 12:11 53.73911 9.98804 6171 ft 232 kts 70°
2026-04-24 12:12 53.74221 10.01492 6965 ft 240 kts 82°
2026-04-24 12:12 53.73937 10.04341 7657 ft 254 kts 104°
2026-04-24 12:12 53.73083 10.07149 8016 ft 282 kts 117°
2026-04-24 12:12 53.72047 10.10096 8608 ft 298 kts 116°
2026-04-24 12:13 53.71003 10.13154 9434 ft 304 kts 116°
2026-04-24 12:13 53.69909 10.16254 10278 ft 311 kts 121°
2026-04-24 12:13 53.68408 10.19098 10602 ft 339 kts 138°
2026-04-24 12:13 53.66387 10.21288 10991 ft 359 kts 155°
2026-04-24 12:14 53.63986 10.22598 11688 ft 366 kts 166°
2026-04-24 12:14 53.61507 10.23710 12482 ft 369 kts 166°
2026-04-24 12:14 53.59016 10.24845 13282 ft 373 kts 165°
2026-04-24 12:14 53.56500 10.26003 14046 ft 377 kts 165°
2026-04-24 12:15 53.53959 10.27174 14725 ft 380 kts 166°
2026-04-24 12:15 53.51397 10.28351 15429 ft 383 kts 166°
2026-04-24 12:15 53.48818 10.29534 16136 ft 385 kts 166°
2026-04-24 12:15 53.46278 10.31033 16816 ft 390 kts 155°
2026-04-24 12:16 53.43943 10.33390 17479 ft 394 kts 143°
2026-04-24 12:16 53.41931 10.36537 18127 ft 399 kts 130°
2026-04-24 12:16 53.40335 10.40369 18733 ft 402 kts 118°
2026-04-24 12:16 53.39035 10.44529 19311 ft 405 kts 117°
2026-04-24 12:17 53.37720 10.48728 19887 ft 409 kts 117°
2026-04-24 12:17 53.36385 10.52952 20458 ft 412 kts 117°
2026-04-24 12:17 53.35031 10.57208 21022 ft 415 kts 118°
2026-04-24 12:17 53.33664 10.61485 21585 ft 419 kts 118°
2026-04-24 12:18 53.32300 10.65747 22133 ft 423 kts 118°
2026-04-24 12:18 53.30906 10.70099 22686 ft 426 kts 118°
2026-04-24 12:18 53.29502 10.74484 23220 ft 430 kts 118°
2026-04-24 12:18 53.28086 10.78902 23740 ft 433 kts 118°
2026-04-24 12:19 53.26654 10.83349 24178 ft 437 kts 118°
2026-04-24 12:19 53.25209 10.87835 24596 ft 440 kts 118°
2026-04-24 12:19 53.23755 10.92359 25005 ft 443 kts 118°
2026-04-24 12:19 53.22298 10.96900 25434 ft 445 kts 118°
2026-04-24 12:20 53.20832 11.01460 25851 ft 448 kts 118°
2026-04-24 12:20 53.19351 11.06045 26258 ft 451 kts 118°
2026-04-24 12:20 53.17854 11.10664 26656 ft 453 kts 119°
2026-04-24 12:20 53.16348 11.15291 27031 ft 456 kts 119°
2026-04-24 12:21 53.14833 11.19933 27132 ft 454 kts 119°
2026-04-24 12:21 53.13312 11.24460 27149 ft 443 kts 123°
2026-04-24 12:21 53.11481 11.28541 27155 ft 439 kts 133°
2026-04-24 12:21 53.09292 11.32064 27139 ft 436 kts 143°
2026-04-24 12:22 53.06899 11.35151 27143 ft 436 kts 144°
2026-04-24 12:22 53.04493 11.38230 27144 ft 436 kts 144°
2026-04-24 12:22 53.02094 11.41317 27144 ft 436 kts 144°
2026-04-24 12:22 52.99698 11.44415 27141 ft 436 kts 144°
2026-04-24 12:23 52.97302 11.47514 27144 ft 436 kts 144°
2026-04-24 12:23 52.94911 11.50603 27144 ft 436 kts 144°
2026-04-24 12:23 52.92514 11.53689 27143 ft 436 kts 144°
2026-04-24 12:23 52.90118 11.56758 27142 ft 436 kts 144°
2026-04-24 12:24 52.87716 11.59826 27145 ft 436 kts 144°
2026-04-24 12:24 52.85317 11.62887 27144 ft 436 kts 144°
2026-04-24 12:24 52.82948 11.65905 27143 ft 436 kts 144°
2026-04-24 12:24 52.80547 11.68964 27145 ft 436 kts 144°
2026-04-24 12:25 52.78147 11.72021 27141 ft 436 kts 144°
2026-04-24 12:25 52.75745 11.75080 27140 ft 436 kts 144°
2026-04-24 12:25 52.73338 11.78140 27138 ft 437 kts 144°
2026-04-24 12:25 52.70928 11.81193 27138 ft 437 kts 144°
2026-04-24 12:26 52.68516 11.84244 27130 ft 437 kts 144°
2026-04-24 12:26 52.66103 11.87292 27138 ft 437 kts 144°
2026-04-24 12:26 52.63691 11.90339 27126 ft 437 kts 144°
2026-04-24 12:26 52.61327 11.93488 27131 ft 437 kts 141°
2026-04-24 12:27 52.59028 11.96772 27137 ft 438 kts 140°
2026-04-24 12:27 52.56773 12.00128 27140 ft 438 kts 139°
2026-04-24 12:27 52.54529 12.03516 27142 ft 438 kts 139°
2026-04-24 12:27 52.52282 12.06890 27154 ft 438 kts 139°
2026-04-24 12:28 52.50021 12.10238 27152 ft 438 kts 139°
2026-04-24 12:28 52.47747 12.13563 27148 ft 438 kts 140°
2026-04-24 12:28 52.45459 12.16865 27146 ft 438 kts 140°
2026-04-24 12:28 52.43166 12.20153 27145 ft 438 kts 140°
2026-04-24 12:29 52.40872 12.23434 27148 ft 438 kts 140°
2026-04-24 12:29 52.38575 12.26720 27148 ft 438 kts 140°
2026-04-24 12:29 52.36279 12.30011 27135 ft 438 kts 140°
2026-04-24 12:29 52.33988 12.33301 27142 ft 438 kts 140°
2026-04-24 12:30 52.31832 12.36823 27137 ft 439 kts 134°
2026-04-24 12:30 52.29744 12.40473 27147 ft 439 kts 134°
2026-04-24 12:30 52.27657 12.44101 27150 ft 439 kts 134°
2026-04-24 12:30 52.25582 12.47663 27162 ft 439 kts 135°
2026-04-24 12:31 52.23401 12.51155 27160 ft 439 kts 137°
2026-04-24 12:31 52.21153 12.54520 27146 ft 439 kts 139°
2026-04-24 12:31 52.18864 12.57816 27152 ft 439 kts 140°
2026-04-24 12:31 52.16564 12.61084 27150 ft 439 kts 140°
2026-04-24 12:32 52.14272 12.64354 27150 ft 439 kts 140°
2026-04-24 12:32 52.11987 12.67652 27144 ft 441 kts 139°
2026-04-24 12:32 52.09688 12.71011 27149 ft 450 kts 139°
2026-04-24 12:32 52.07379 12.74413 27050 ft 443 kts 139°
2026-04-24 12:33 52.05126 12.77746 26674 ft 435 kts 138°
2026-04-24 12:33 52.02904 12.81029 26235 ft 430 kts 138°
2026-04-24 12:33 52.00692 12.84287 25770 ft 427 kts 138°
2026-04-24 12:33 51.98495 12.87509 25309 ft 424 kts 138°
2026-04-24 12:34 51.96309 12.90699 24876 ft 421 kts 138°
2026-04-24 12:34 51.94134 12.93858 24465 ft 418 kts 139°
2026-04-24 12:34 51.91974 12.96985 24041 ft 415 kts 139°
2026-04-24 12:34 51.89823 13.00098 23549 ft 412 kts 138°
2026-04-24 12:35 51.87701 13.03171 22978 ft 409 kts 138°
2026-04-24 12:35 51.85587 13.06236 22431 ft 405 kts 138°
2026-04-24 12:35 51.83494 13.09269 21903 ft 402 kts 138°
2026-04-24 12:35 51.81419 13.12270 21375 ft 398 kts 138°
2026-04-24 12:36 51.79360 13.15242 20861 ft 395 kts 138°
2026-04-24 12:36 51.77322 13.18184 20341 ft 392 kts 138°
2026-04-24 12:36 51.75300 13.21102 19851 ft 388 kts 138°
2026-04-24 12:36 51.73291 13.23993 19349 ft 385 kts 138°
2026-04-24 12:37 51.71298 13.26859 18858 ft 382 kts 138°
2026-04-24 12:37 51.69318 13.29700 18365 ft 380 kts 138°
2026-04-24 12:37 51.67351 13.32520 17821 ft 377 kts 138°
2026-04-24 12:37 51.65402 13.35313 17295 ft 374 kts 138°
2026-04-24 12:38 51.63462 13.38087 16784 ft 371 kts 137°
2026-04-24 12:38 51.61539 13.40834 16289 ft 369 kts 137°
2026-04-24 12:38 51.59624 13.43564 15809 ft 366 kts 137°
2026-04-24 12:39 51.53952 13.51628 14424 ft 359 kts 137°
2026-04-24 12:39 51.52085 13.54274 13971 ft 357 kts 137°
2026-04-24 12:39 51.50853 13.56016 13643 ft 356 kts 137°
2026-04-24 12:40 51.49003 13.58634 13153 ft 353 kts 137°
2026-04-24 12:40 51.47292 13.61423 12673 ft 348 kts 126°
2026-04-24 12:40 51.45714 13.65801 12028 ft 339 kts 108°
2026-04-24 12:40 51.45237 13.68217 11699 ft 335 kts 100°
2026-04-24 12:41 51.44687 13.71846 11205 ft 334 kts 100°
2026-04-24 12:41 51.44134 13.75442 10741 ft 332 kts 101°
2026-04-24 12:41 51.43584 13.78972 10605 ft 319 kts 101°
2026-04-24 12:41 51.43057 13.82326 10433 ft 302 kts 101°
2026-04-24 12:42 51.42547 13.85556 10136 ft 296 kts 101°
2026-04-24 12:42 51.42045 13.88736 9713 ft 293 kts 101°
2026-04-24 12:42 51.41557 13.91843 9447 ft 282 kts 101°
2026-04-24 12:42 51.41083 13.94860 8982 ft 277 kts 101°
2026-04-24 12:43 51.40612 13.97843 8473 ft 274 kts 102°
2026-04-24 12:43 51.39837 14.00638 7755 ft 282 kts 122°
2026-04-24 12:43 51.38446 14.02899 7004 ft 289 kts 146°
2026-04-24 12:43 51.36608 14.04208 6258 ft 292 kts 169°
2026-04-24 12:44 51.34636 14.04302 5906 ft 278 kts 191°
2026-04-24 12:44 51.32859 14.03378 5596 ft 270 kts 211°
2026-04-24 12:44 51.31363 14.01648 5263 ft 262 kts 224°
2026-04-24 12:44 51.30003 13.99749 4924 ft 251 kts 225°
2026-04-24 12:45 51.28701 13.97930 4583 ft 248 kts 225°
2026-04-24 12:45 51.27421 13.96151 4247 ft 246 kts 224°
2026-04-24 12:45 51.26136 13.94367 3915 ft 244 kts 225°
2026-04-24 12:45 51.24867 13.92606 3585 ft 240 kts 224°
2026-04-24 12:46 51.23609 13.90862 3258 ft 238 kts 224°
2026-04-24 12:46 51.22373 13.89150 2932 ft 234 kts 225°
2026-04-24 12:46 51.21164 13.87477 2605 ft 225 kts 225°
2026-04-24 12:46 51.20012 13.85886 2308 ft 213 kts 226°
2026-04-24 12:47 51.18913 13.84367 2031 ft 204 kts 226°
2026-04-24 12:47 51.17880 13.82940 1741 ft 191 kts 226°
2026-04-24 12:47 51.16856 13.81525 2071 ft 202 kts 225°
2026-04-24 12:47 51.15788 13.80049 3024 ft 203 kts 226°
2026-04-24 12:48 51.14706 13.78555 3817 ft 210 kts 225°
2026-04-24 12:48 51.13597 13.77001 4625 ft 218 kts 226°
2026-04-24 12:48 51.12449 13.75362 4915 ft 223 kts 226°
2026-04-24 12:48 51.11297 13.73713 4978 ft 225 kts 226°
2026-04-24 12:49 51.10130 13.72046 4979 ft 226 kts 226°
2026-04-24 12:49 51.08961 13.70378 4987 ft 226 kts 226°
2026-04-24 12:49 51.07785 13.68720 4980 ft 226 kts 225°
2026-04-24 12:49 51.06727 13.66926 4978 ft 220 kts 243°
2026-04-24 12:50 51.06246 13.64689 4990 ft 212 kts 270°
2026-04-24 12:50 51.06445 13.62437 4980 ft 205 kts 295°
2026-04-24 12:50 51.07243 13.60588 4981 ft 203 kts 320°
2026-04-24 12:50 51.08461 13.59508 4983 ft 202 kts 344°
2026-04-24 12:51 51.09866 13.59348 4984 ft 205 kts
2026-04-24 12:51 51.11286 13.59495 4988 ft 204 kts
2026-04-24 12:51 51.12709 13.59627 4982 ft 204 kts
2026-04-24 12:51 51.14131 13.59757 4980 ft 206 kts
2026-04-24 12:52 51.15562 13.59886 4985 ft 206 kts
2026-04-24 12:52 51.16992 13.60020 4983 ft 205 kts
2026-04-24 12:52 51.18407 13.60153 4987 ft 204 kts
2026-04-24 12:52 51.19827 13.60283 4980 ft 205 kts
2026-04-24 12:53 51.21251 13.60413 4982 ft 205 kts
2026-04-24 12:53 51.22653 13.60544 4980 ft 204 kts
2026-04-24 12:53 51.24075 13.60676 4981 ft 204 kts
2026-04-24 12:53 51.25494 13.60809 4987 ft 205 kts
2026-04-24 12:54 51.26920 13.60945 4985 ft 205 kts
2026-04-24 12:54 51.28348 13.61082 4984 ft 205 kts
2026-04-24 12:54 51.29770 13.61220 4994 ft 205 kts
2026-04-24 12:54 51.31186 13.61357 4981 ft 203 kts
2026-04-24 12:55 51.32598 13.61492 4983 ft 204 kts
2026-04-24 12:55 51.34017 13.61628 4991 ft 205 kts
2026-04-24 12:55 51.35438 13.61762 4990 ft 204 kts
2026-04-24 12:55 51.36854 13.61894 4988 ft 204 kts
2026-04-24 12:56 51.38255 13.62026 4987 ft 204 kts
2026-04-24 12:56 51.39664 13.62160 4994 ft 203 kts
2026-04-24 12:56 51.41082 13.62294 4983 ft 204 kts
2026-04-24 12:56 51.42505 13.62429 4990 ft 204 kts
2026-04-24 12:57 51.43904 13.62775 4979 ft 206 kts 20°
2026-04-24 12:57 51.45025 13.64223 4985 ft 213 kts 54°
2026-04-24 12:57 51.45448 13.66518 4981 ft 223 kts 90°
2026-04-24 12:57 51.45116 13.68972 4987 ft 227 kts 102°
2026-04-24 12:58 51.44718 13.71419 4981 ft 227 kts 101°
2026-04-24 12:58 51.44339 13.73878 4995 ft 228 kts 101°
2026-04-24 12:58 51.43964 13.76337 4991 ft 227 kts 100°
2026-04-24 12:58 51.43588 13.78797 4993 ft 227 kts 100°
2026-04-24 12:59 51.43211 13.81253 4982 ft 227 kts 100°
2026-04-24 12:59 51.42830 13.83706 4994 ft 227 kts 100°
2026-04-24 12:59 51.42448 13.86166 4983 ft 228 kts 101°
2026-04-24 12:59 51.42067 13.88626 4989 ft 227 kts 101°
2026-04-24 13:00 51.41689 13.91040 4984 ft 227 kts 101°
2026-04-24 13:00 51.41303 13.93495 4987 ft 227 kts 101°
2026-04-24 13:00 51.40917 13.95945 4982 ft 228 kts 101°
2026-04-24 13:00 51.40528 13.98407 4983 ft 228 kts 101°
2026-04-24 13:01 51.40138 14.00865 4983 ft 228 kts 101°
2026-04-24 13:01 51.39750 14.03314 4979 ft 227 kts 101°
2026-04-24 13:01 51.39257 14.05720 4969 ft 231 kts 120°
2026-04-24 13:01 51.38099 14.07473 4983 ft 233 kts 155°
2026-04-24 13:02 51.36524 14.07886 4978 ft 231 kts 192°
2026-04-24 13:02 51.35099 14.06857 4988 ft 224 kts 223°
2026-04-24 13:02 51.33923 14.05224 4988 ft 224 kts 226°
2026-04-24 13:02 51.32753 14.03572 4988 ft 225 kts 225°
2026-04-24 13:03 51.31578 14.01930 4985 ft 224 kts 224°
2026-04-24 13:03 51.30398 14.00289 4932 ft 226 kts 225°
2026-04-24 13:03 51.29219 13.98648 4690 ft 224 kts 224°
2026-04-24 13:03 51.28051 13.97026 4398 ft 222 kts 225°
2026-04-24 13:04 51.26890 13.95414 4100 ft 220 kts 225°
2026-04-24 13:04 51.25734 13.93809 3809 ft 220 kts 225°
2026-04-24 13:04 51.24590 13.92222 3508 ft 215 kts 225°
2026-04-24 13:04 51.23482 13.90688 3224 ft 206 kts 225°
2026-04-24 13:05 51.22429 13.89231 2974 ft 195 kts 225°
2026-04-24 13:05 51.21430 13.87847 2673 ft 185 kts 225°
2026-04-24 13:05 51.20488 13.86545 2431 ft 171 kts 225°
2026-04-24 13:05 51.19652 13.85393 2206 ft 149 kts 226°
2026-04-24 13:06 51.18901 13.84355 2010 ft 137 kts 229°
2026-04-24 13:06 51.18192 13.83373 1825 ft 133 kts 226°
2026-04-24 13:06 51.17498 13.82411 1632 ft 132 kts 226°
2026-04-24 13:06 51.16808 13.81458 1436 ft 130 kts 226°
2026-04-24 13:07 51.16131 13.80517 1233 ft 130 kts 223°
2026-04-24 13:07 51.15457 13.79591 1084 ft 128 kts 223°
2026-04-24 13:07 51.14792 13.78677 930 ft 125 kts 227°
2026-04-24 13:07 51.14138 13.77779 768 ft 123 kts 226°
2026-04-24 13:08 51.13592 13.77018 749 ft 83 kts 220°
2026-04-24 13:08 51.13286 13.76596 748 ft 33 kts 221°
2026-04-24 13:08 51.13154 13.76414 747 ft 23 kts 221°
2026-04-24 13:09 51.12912 13.76080 748 ft 23 kts 221°
2026-04-24 13:09 51.12796 13.75919 747 ft 21 kts 221°
2026-04-24 13:09 51.12689 13.75770 751 ft 20 kts 221°
2026-04-24 13:09 51.12596 13.75642 749 ft 16 kts 221°
2026-04-24 13:10 51.12522 13.75541 750 ft 11 kts 220°
2026-04-24 13:10 51.12452 13.75519 748 ft 12 kts 150°
2026-04-24 13:10 51.12403 13.75630 749 ft 13 kts 110°
2026-04-24 13:10 51.12370 13.75759 750 ft 13 kts 108°
2026-04-24 13:11 51.12411 13.75870 749 ft 12 kts 41°
2026-04-24 13:11 51.12477 13.75962 749 ft 13 kts 40°
2026-04-24 13:11 51.12547 13.76057 749 ft 14 kts 41°
2026-04-24 13:11 51.12621 13.76159 750 ft 14 kts 41°
2026-04-24 13:12 51.12694 13.76260 750 ft 15 kts 40°
2026-04-24 13:12 51.12767 13.76359 749 ft 7 kts 40°
2026-04-24 13:12 51.12793 13.76417 749 ft 7 kts 76°
2026-04-24 13:12 51.12775 13.76484 748 ft 7 kts 128°
2026-04-24 13:13 51.12743 13.76542 749 ft 7 kts 134°
2026-04-24 13:13 51.12711 13.76604 749 ft 7 kts 129°
2026-04-24 13:13 51.12688 13.76621 750 ft 3 kts 188°
2026-04-24 13:13 51.12668 13.76597 747 ft 4 kts 220°
2026-04-24 13:14 51.12643 13.76563 751 ft 5 kts 221°
2026-04-24 13:14 51.12625 13.76539 748 ft 0 kts 220°